Погода в Донхае

Китай     22°57′00″N   115°37′48″E
темп.,
°C
ветер,
м/с
пор.,
м/с
влажн.,
%
обл.,
%
осадки,
мм/ч
давл.,
гПа
погр.,
м
23 апреля, пт
пт2323:00+23зюз22790 0.0 100872
02:00+22св00820 0.0 100811
05:00+22всв118152 0.0 100714
08:00+25вюв11643 0.0 1009368
11:00+31ююв43470 0.0 10081391
14:00+29ююв655561 0.0 1007852
17:00+27ююв5567100 0.0 1007694
20:00+24вюв348167 0.0 1009285
24 апреля, сб
сб2423:00+23в348469 0.0 1011379
02:00+22в238759 0.0 1010206
05:00+22всв2386100 0.0 1011189
08:00+23в337762 0.0 1012469
11:00+29юв445047 0.0 10121395
14:00+29ююв655418 0.0 10101166
17:00+26ююв54641 0.0 1010814
20:00+23юв348110 0.0 1012434
25 апреля, вс
вс2523:00+22всв228723 0.0 1013138
02:00+21всв119023 0.0 101253
05:00+21св128489 0.0 1011117
08:00+23св2274100 0.0 1013358
11:00+26юв2161100 0.0 10131147
14:00+25юв3365100 0.1 10121018
17:00+24вюв346999 0.1 1012772
20:00+23в347699 0.2 1014438
26 апреля, пн
пн2623:00+22в3477100 0.0 1015379
02:00+21в3582100 0.3 1014400
05:00+21в3481100 0.1 1014463
08:00+21всв3578100 0.1 1016499
11:00+23всв4567100 0.0 1016822
14:00+25в3457100 0.1 10141174
17:00+23вюв136982 0.3 1014362
20:00+22в3473100 0.3 1015249
27 апреля, вт
вт2723:00+21всв3475100 0.0 1016209
02:00+21св2374100 0.0 1015179
05:00+21всв2377100 0.0 1015171
08:00+23всв2367100 0.0 1016483
11:00+25вюв3358100 0.0 1016975
14:00+25юв4462100 0.0 1014833
17:00+23вюв3371100 0.0 1014406
20:00+23в2373100 0.0 1015254